Location: Spangle
(47.4302°N, 117.3779°W)
Time: 12:20:24
(UTC+00:00)

ISS - Pass Details

Date: 27 April 2026
Orbit: 414 x 424 km, 51.6° (Epoch: 11 May)

Event Time Altitude Azimuth Distance (km) Brightness Sun altitude
Exits shadow 10:31:31 52° 281° (WNW) 527 -3.5 -18.5°
Maximum altitude 10:32:09 68° 340° (NNW) 455 -3.6 -18.5°
Drops below altitude 10° 10:35:31 10° 64° (ENE) 1,505 0.1 -18.1°
Sets 10:37:38 0° 67° (ENE) 2,373 1.3 -17.8°
